User: anonymous   Login
Location: Unspecified
(0.0000°N, 0.0000°E)
Time: 00:14:43
(UTC+00:00)
Language:

RASAT - Orbit

View from above orbital plane
View from above orbital plane
View from above satellite
View from above satellite

Ground track
Ground track

The orbit data is extracted from the following two-line orbital elements,

1 37791U 11044D   17328.81394348  .00000070  00000-0  22298-4 0  9992
2 37791  98.1340  58.8875 0021684 339.7438  20.2901 14.64635490335280
Epoch (UTC): 24 November 2017 19:32:04
Eccentricity: 0.0021684
inclination: 98.1340°
perigee height: 663 km
apogee height: 693 km
right ascension of ascending node: 58.8875°
argument of perigee: 339.7438°
revolutions per day: 14.64635490
mean anomaly at epoch: 20.2901°
orbit number at epoch: 33528

The dashed part of the orbit path shows where the satellite is in the earth's shadow,  

DLR